Regional Weather Roundup
Issued by NWS Raleigh/Durham, NC

Home | Current Version | Previous Version | Text Only | Print | Product List | Glossary On
Versions: 1 2 3 4 5 6 7 8 9 10 11 12 13 14 15 16 17 18 19 20 21 22 23 24 25 26 27 28 29 30 31 32 33 34 35 36 37 38 39 40 41 42 43 44 45 46 47 48 49 50
000
ASUS42 KRAH 060710
RWRRAH
NORTH CAROLINA WEATHER ROUNDUP
NATIONAL WEATHER SERVICE RALEIGH NC
200 AM EST TUE DEC 06 2016

NOTE: "FAIR" INDICATES FEW OR NO CLOUDS BELOW 12,000 FEET WITH NO
SIGNIFICANT WEATHER AND/OR OBSTRUCTIONS TO VISIBILITY.

NCZ001-053-055-056-065-067-060800-
WESTERN NORTH CAROLINA

CITY           SKY/WX    TMP DP  RH WIND       PRES   REMARKS
ASHEVILLE      NOT AVBL
JEFFERSON      LGT RAIN  38  37  97 CALM      29.99R
MORGANTON      DRIZZLE   46  46  99 CALM      30.03F
HICKORY        CLOUDY    47  46  97 NE8       29.98F
RUTHERFORDTON  CLOUDY    48  47  97 E6        29.98F
MOUNT AIRY     CLOUDY    48  46  92 E6        30.04F
BOONE          DRIZZLE   38  38 100 E3        29.98F
$$

NCZ021-022-025-041-071-084-088-060800-
CENTRAL NORTH CAROLINA

CITY           SKY/WX    TMP DP  RH WIND       PRES   REMARKS
CHARLOTTE      CLOUDY    49  46  90 NE10      29.95F
GREENSBORO     LGT RAIN  47  45  93 E10       30.02F
WINSTON-SALEM  CLOUDY    47  43  86 E8        30.02F
RALEIGH-DURHAM LGT RAIN  48  45  89 E9        30.07F
FORT BRAGG     CLOUDY    50  46  87 E8        30.03F
FAYETTEVILLE   LGT RAIN  50  48  93 NE7       30.05S
BURLINGTON     LGT RAIN  47  46  97 E6        30.04F
LAURINBURG     RAIN      50  49  96 NE12      30.02F FOG
$$

NCZ011-015-027-028-043-044-047-080-103-060800-
NORTHEASTERN NORTH CAROLINA

CITY           SKY/WX    TMP DP  RH WIND       PRES   REMARKS
ROCKY MT-WILSO LGT RAIN  47  46  97 NE5       30.10R
GREENVILLE     RAIN      46  45  93 N3        30.11R
WASHINGTON     LGT RAIN  46  43  88 N3        30.09R
ELIZABETH CITY CLOUDY    49  44  83 NE5       30.08R
MANTEO         CLOUDY    51  45  79 E12G17    30.06R
CAPE HATTERAS  LGT RAIN  52  48  86 NE7       30.05R
$$

NCZ078-087-090-091-093-098-101-060800-
SOUTHEASTERN NORTH CAROLINA

CITY           SKY/WX    TMP DP  RH WIND       PRES   REMARKS
LUMBERTON      RAIN      49  48  97 NE16      30.01F
GOLDSBORO      LGT RAIN  48  48  99 NE5       30.07R
KINSTON        DRIZZLE   48  44  85 N3        30.09R
KENANSVILLE    LGT RAIN  46  45  93 NE5       30.07S
NEW BERN       LGT RAIN  48  44  86 N8        30.06S
CHERRY POINT   LGT RAIN  50  46  86 NE14      30.04F
BEAUFORT       RAIN      50  48  93 VRB7      30.02F FOG
JACKSONVILLE   CLOUDY    48  47  96 N9        30.04S
WILMINGTON     RAIN      47  47 100 N10       30.03R
$$




USA.gov is the U.S. government's official web portal to all federal, state and local government web resources and services.